Time,TemperatureF,DewpointF,PressureIn,WindDirection,WindDirectionDegrees,WindSpeedMPH,WindSpeedGustMPH,Humidity,HourlyPrecipIn,Conditions,Clouds,dailyrainin,SoftwareType,DateUTC
2013-01-10 00:04:00,34.3,13.0,29.99,ENE,72,3.0,5.0,42,0.00,,,0.00,weatherlink.com 1.10,2013-01-10 07:04:00,
2013-01-10 00:19:00,33.7,13.0,29.98,ENE,72,3.0,4.0,42,0.00,,,0.00,weatherlink.com 1.10,2013-01-10 07:19:00,
2013-01-10 00:34:00,32.7,13.0,29.98,ENE,72,0.0,3.0,44,0.00,,,0.00,weatherlink.com 1.10,2013-01-10 07:34:00,
2013-01-10 00:49:00,31.7,13.0,29.97,ENE,74,2.0,3.0,47,0.00,,,0.00,weatherlink.com 1.10,2013-01-10 07:49:00,
2013-01-10 01:04:00,33.0,13.0,29.97,ENE,74,0.0,3.0,44,0.00,,,0.00,weatherlink.com 1.10,2013-01-10 08:04:00,
2013-01-10 01:19:00,30.1,13.0,29.96,ENE,74,0.0,2.0,50,0.00,,,0.00,weatherlink.com 1.10,2013-01-10 08:19:00,
2013-01-10 01:34:00,31.0,13.0,29.96,ENE,74,2.0,3.0,48,0.00,,,0.00,weatherlink.com 1.10,2013-01-10 08:34:00,
2013-01-10 01:49:00,33.8,12.0,29.95,ENE,74,0.0,4.0,41,0.00,,,0.00,weatherlink.com 1.10,2013-01-10 08:49:00,
2013-01-10 02:04:00,34.3,12.0,29.95,ENE,74,0.0,0.0,40,0.00,,,0.00,weatherlink.com 1.10,2013-01-10 09:04:00,
2013-01-10 02:19:00,32.7,12.0,29.95,ENE,74,0.0,2.0,43,0.00,,,0.00,weatherlink.com 1.10,2013-01-10 09:19:00,
2013-01-10 02:35:00,30.6,12.0,29.94,ENE,74,3.0,3.0,46,0.00,,,0.00,weatherlink.com 1.10,2013-01-10 09:35:00,
2013-01-10 02:50:00,31.9,11.0,29.93,ENE,74,0.0,1.0,42,0.00,,,0.00,weatherlink.com 1.10,2013-01-10 09:50:00,
2013-01-10 03:05:00,32.2,10.0,29.92,ENE,74,1.0,2.0,40,0.00,,,0.00,weatherlink.com 1.10,2013-01-10 10:05:00,
2013-01-10 03:20:00,32.7,11.0,29.92,ENE,74,0.0,0.0,40,0.00,,,0.00,weatherlink.com 1.10,2013-01-10 10:20:00,
2013-01-10 03:35:00,32.9,11.0,29.91,ENE,74,0.0,0.0,41,0.00,,,0.00,weatherlink.com 1.10,2013-01-10 10:35:00,
2013-01-10 03:50:00,32.2,12.0,29.90,ENE,74,0.0,2.0,43,0.00,,,0.00,weatherlink.com 1.10,2013-01-10 10:50:00,
2013-01-10 04:05:00,31.2,13.0,29.90,ENE,74,0.0,0.0,47,0.00,,,0.00,weatherlink.com 1.10,2013-01-10 11:05:00,
2013-01-10 04:20:00,31.0,13.0,29.89,ENE,74,2.0,3.0,48,0.00,,,0.00,weatherlink.com 1.10,2013-01-10 11:20:00,
2013-01-10 04:35:00,29.7,13.0,29.88,ENE,74,3.0,3.0,49,0.00,,,0.00,weatherlink.com 1.10,2013-01-10 11:35:00,
2013-01-10 04:50:00,31.3,13.0,29.87,ENE,73,0.0,4.0,46,0.00,,,0.00,weatherlink.com 1.10,2013-01-10 11:50:00,
2013-01-10 05:05:00,32.4,13.0,29.87,ENE,73,0.0,0.0,44,0.00,,,0.00,weatherlink.com 1.10,2013-01-10 12:05:00,
2013-01-10 05:20:00,32.6,12.0,29.87,ENE,73,2.0,3.0,43,0.00,,,0.00,weatherlink.com 1.10,2013-01-10 12:20:00,
2013-01-10 05:35:00,32.2,11.0,29.86,ENE,73,0.0,0.0,42,0.00,,,0.00,weatherlink.com 1.10,2013-01-10 12:35:00,
2013-01-10 05:50:00,30.3,13.0,29.86,ENE,73,0.0,2.0,49,0.00,,,0.00,weatherlink.com 1.10,2013-01-10 12:50:00,
2013-01-10 06:05:00,28.8,14.0,29.86,ENE,73,1.0,2.0,54,0.00,,,0.00,weatherlink.com 1.10,2013-01-10 13:05:00,
2013-01-10 06:20:00,28.3,13.0,29.86,ENE,73,0.0,0.0,52,0.00,,,0.00,weatherlink.com 1.10,2013-01-10 13:20:00,
2013-01-10 06:50:00,27.0,12.0,29.84,ENE,73,0.0,2.0,53,0.00,,,0.00,weatherlink.com 1.10,2013-01-10 13:50:00,
2013-01-10 07:05:00,26.0,12.0,29.84,ENE,73,0.0,4.0,56,0.00,,,0.00,weatherlink.com 1.10,2013-01-10 14:05:00,
2013-01-10 07:20:00,26.0,12.0,29.83,ENE,73,1.0,3.0,55,0.00,,,0.00,weatherlink.com 1.10,2013-01-10 14:20:00,
2013-01-10 07:35:00,28.4,12.0,29.83,ENE,73,0.0,0.0,51,0.00,,,0.00,weatherlink.com 1.10,2013-01-10 14:35:00,
2013-01-10 08:05:00,28.9,14.0,29.82,ENE,73,0.0,0.0,54,0.00,,,0.00,weatherlink.com 1.10,2013-01-10 15:05:00,
2013-01-10 08:20:00,30.2,16.0,29.81,ENE,73,0.0,0.0,55,0.00,,,0.00,weatherlink.com 1.10,2013-01-10 15:20:00,
2013-01-10 08:35:00,30.1,14.0,29.81,ENE,73,0.0,5.0,51,0.00,,,0.00,weatherlink.com 1.10,2013-01-10 15:35:00,
2013-01-10 08:50:00,30.8,14.0,29.80,ENE,73,0.0,4.0,49,0.00,,,0.00,weatherlink.com 1.10,2013-01-10 15:50:00,
2013-01-10 09:05:00,32.7,15.0,29.80,ENE,73,0.0,3.0,49,0.00,,,0.00,weatherlink.com 1.10,2013-01-10 16:05:00,
2013-01-10 09:20:00,33.3,16.0,29.79,ENE,73,0.0,3.0,50,0.00,,,0.00,weatherlink.com 1.10,2013-01-10 16:20:00,
2013-01-10 09:35:00,33.7,17.0,29.79,ENE,73,2.0,3.0,51,0.00,,,0.00,weatherlink.com 1.10,2013-01-10 16:35:00,
2013-01-10 09:51:00,34.2,18.0,29.80,ENE,73,0.0,4.0,52,0.00,,,0.00,weatherlink.com 1.10,2013-01-10 16:51:00,
2013-01-10 10:06:00,34.7,19.0,29.79,ENE,73,3.0,3.0,52,0.00,,,0.00,weatherlink.com 1.10,2013-01-10 17:06:00,
2013-01-10 10:21:00,34.6,19.0,29.77,ENE,73,4.0,4.0,53,0.00,,,0.00,weatherlink.com 1.10,2013-01-10 17:21:00,
2013-01-10 10:36:00,34.5,19.0,29.77,ENE,73,1.0,5.0,54,0.00,,,0.00,weatherlink.com 1.10,2013-01-10 17:36:00,
2013-01-10 10:51:00,34.7,19.0,29.76,ENE,72,2.0,7.0,52,0.00,,,0.00,weatherlink.com 1.10,2013-01-10 17:51:00,
2013-01-10 11:06:00,35.1,18.0,29.75,ENE,72,0.0,7.0,51,0.00,,,0.00,weatherlink.com 1.10,2013-01-10 18:06:00,
2013-01-10 11:23:00,35.6,18.0,29.74,ENE,71,1.0,7.0,50,0.00,,,0.00,weatherlink.com 1.10,2013-01-10 18:23:00,
2013-01-10 11:36:00,35.9,18.0,29.73,ENE,71,0.0,5.0,49,0.00,,,0.00,weatherlink.com 1.10,2013-01-10 18:36:00,
2013-01-10 11:51:00,36.2,19.0,29.72,ENE,71,2.0,5.0,49,0.00,,,0.00,weatherlink.com 1.10,2013-01-10 18:51:00,
2013-01-10 12:06:00,36.6,19.0,29.70,ENE,71,3.0,4.0,49,0.00,,,0.00,weatherlink.com 1.10,2013-01-10 19:06:00,
2013-01-10 12:21:00,36.7,19.0,29.70,ENE,71,3.0,5.0,49,0.00,,,0.00,weatherlink.com 1.10,2013-01-10 19:21:00,
2013-01-10 12:36:00,36.6,19.0,29.70,ENE,71,0.0,7.0,49,0.00,,,0.00,weatherlink.com 1.10,2013-01-10 19:36:00,
2013-01-10 12:51:00,36.6,19.0,29.69,ENE,71,3.0,5.0,50,0.00,,,0.00,weatherlink.com 1.10,2013-01-10 19:51:00,
2013-01-10 13:06:00,37.1,19.0,29.69,ENE,71,3.0,5.0,49,0.00,,,0.00,weatherlink.com 1.10,2013-01-10 20:06:00,
2013-01-10 13:21:00,38.0,19.0,29.68,ENE,71,0.0,4.0,47,0.00,,,0.00,weatherlink.com 1.10,2013-01-10 20:21:00,
2013-01-10 13:36:00,38.4,19.0,29.68,ENE,71,0.0,2.0,46,0.00,,,0.00,weatherlink.com 1.10,2013-01-10 20:36:00,
2013-01-10 13:51:00,38.5,19.0,29.67,ENE,71,0.0,1.0,45,0.00,,,0.00,weatherlink.com 1.10,2013-01-10 20:51:00,
2013-01-10 14:06:00,38.7,19.0,29.67,ENE,71,0.0,1.0,45,0.00,,,0.00,weatherlink.com 1.10,2013-01-10 21:06:00,
2013-01-10 14:21:00,39.1,19.0,29.66,ENE,71,0.0,0.0,45,0.00,,,0.00,weatherlink.com 1.10,2013-01-10 21:21:00,
2013-01-10 14:36:00,40.0,19.0,29.66,ENE,71,0.0,0.0,43,0.00,,,0.00,weatherlink.com 1.10,2013-01-10 21:36:00,
2013-01-10 14:51:00,41.1,19.0,29.66,ENE,71,0.0,0.0,42,0.00,,,0.00,weatherlink.com 1.10,2013-01-10 21:51:00,
2013-01-10 15:06:00,41.8,20.0,29.66,ENE,71,0.0,0.0,41,0.00,,,0.00,weatherlink.com 1.10,2013-01-10 22:06:00,
2013-01-10 15:21:00,42.0,20.0,29.65,ENE,71,2.0,2.0,41,0.00,,,0.00,weatherlink.com 1.10,2013-01-10 22:21:00,
2013-01-10 15:36:00,40.9,19.0,29.65,ENE,71,0.0,2.0,42,0.00,,,0.00,weatherlink.com 1.10,2013-01-10 22:36:00,
2013-01-10 15:51:00,40.6,20.0,29.65,ENE,71,0.0,0.0,43,0.00,,,0.00,weatherlink.com 1.10,2013-01-10 22:51:00,
2013-01-10 16:06:00,40.1,19.0,29.64,ENE,71,0.0,0.0,43,0.00,,,0.00,weatherlink.com 1.10,2013-01-10 23:06:00,
2013-01-10 16:21:00,39.3,19.0,29.64,ENE,71,0.0,1.0,45,0.00,,,0.00,weatherlink.com 1.10,2013-01-10 23:21:00,
2013-01-10 16:36:00,38.7,19.0,29.63,ENE,71,0.0,3.0,46,0.00,,,0.00,weatherlink.com 1.10,2013-01-10 23:36:00,
2013-01-10 16:51:00,37.8,20.0,29.62,ENE,71,2.0,3.0,48,0.00,,,0.00,weatherlink.com 1.10,2013-01-10 23:51:00,
2013-01-10 17:06:00,37.1,19.0,29.63,ENE,71,0.0,0.0,49,0.00,,,0.00,weatherlink.com 1.10,2013-01-11 00:06:00,
2013-01-10 17:21:00,36.2,19.0,29.62,ENE,71,0.0,0.0,51,0.00,,,0.00,weatherlink.com 1.10,2013-01-11 00:21:00,
2013-01-10 17:37:00,35.7,19.0,29.62,ENE,71,0.0,0.0,52,0.00,,,0.00,weatherlink.com 1.10,2013-01-11 00:37:00,
2013-01-10 17:52:00,34.2,20.0,29.62,ENE,71,0.0,1.0,56,0.00,,,0.00,weatherlink.com 1.10,2013-01-11 00:52:00,
2013-01-10 18:07:00,33.7,19.0,29.62,ENE,71,1.0,3.0,56,0.00,,,0.00,weatherlink.com 1.10,2013-01-11 01:07:00,
2013-01-10 18:22:00,33.4,19.0,29.61,ENE,71,0.0,0.0,56,0.00,,,0.00,weatherlink.com 1.10,2013-01-11 01:22:00,
2013-01-10 18:37:00,33.1,19.0,29.61,ENE,71,0.0,2.0,57,0.00,,,0.00,weatherlink.com 1.10,2013-01-11 01:37:00,
2013-01-10 18:52:00,32.4,19.0,29.61,ENE,71,0.0,4.0,59,0.00,,,0.00,weatherlink.com 1.10,2013-01-11 01:52:00,
2013-01-10 19:07:00,32.2,18.0,29.60,ENE,71,0.0,3.0,57,0.00,,,0.00,weatherlink.com 1.10,2013-01-11 02:07:00,
2013-01-10 19:22:00,31.9,18.0,29.60,ENE,72,0.0,4.0,58,0.00,,,0.00,weatherlink.com 1.10,2013-01-11 02:22:00,
2013-01-10 19:37:00,31.7,19.0,29.59,ENE,71,0.0,4.0,59,0.00,,,0.00,weatherlink.com 1.10,2013-01-11 02:37:00,
2013-01-10 20:07:00,32.1,18.0,29.59,East,85,2.0,2.0,57,0.00,,,0.00,weatherlink.com 1.10,2013-01-11 03:07:00,
2013-01-10 20:22:00,31.6,19.0,29.59,East,85,0.0,2.0,59,0.00,,,0.00,weatherlink.com 1.10,2013-01-11 03:22:00,
2013-01-10 20:37:00,34.7,18.0,29.58,East,85,0.0,2.0,51,0.00,,,0.00,weatherlink.com 1.10,2013-01-11 03:37:00,
2013-01-10 20:52:00,34.7,18.0,29.58,East,85,0.0,2.0,50,0.00,,,0.00,weatherlink.com 1.10,2013-01-11 03:52:00,
2013-01-10 21:22:00,33.5,18.0,29.57,East,85,0.0,5.0,54,0.00,,,0.00,weatherlink.com 1.10,2013-01-11 04:22:00,
2013-01-10 21:37:00,33.4,18.0,29.57,East,85,0.0,3.0,53,0.00,,,0.00,weatherlink.com 1.10,2013-01-11 04:37:00,
2013-01-10 21:52:00,34.8,15.0,29.56,East,85,2.0,5.0,44,0.00,,,0.00,weatherlink.com 1.10,2013-01-11 04:52:00,
2013-01-10 22:07:00,40.3,12.0,29.55,ESE,111,5.0,8.0,31,0.00,,,0.00,weatherlink.com 1.10,2013-01-11 05:07:00,
2013-01-10 22:22:00,41.8,11.0,29.54,ESE,111,2.0,4.0,28,0.00,,,0.00,weatherlink.com 1.10,2013-01-11 05:22:00,
2013-01-10 22:38:00,42.2,11.0,29.54,ESE,116,2.0,8.0,28,0.00,,,0.00,weatherlink.com 1.10,2013-01-11 05:38:00,
2013-01-10 22:52:00,43.4,12.0,29.54,South,180,6.0,11.0,28,0.00,,,0.00,weatherlink.com 1.10,2013-01-11 05:52:00,
2013-01-10 23:07:00,43.8,12.0,29.53,SSW,195,6.0,11.0,27,0.00,,,0.00,weatherlink.com 1.10,2013-01-11 06:07:00,
2013-01-10 23:22:00,43.5,13.0,29.54,SSW,204,5.0,16.0,29,0.00,,,0.00,weatherlink.com 1.10,2013-01-11 06:22:00,
2013-01-10 23:37:00,43.8,16.0,29.53,SSW,199,6.0,15.0,32,0.00,,,0.00,weatherlink.com 1.10,2013-01-11 06:37:00,
2013-01-10 23:52:00,44.7,16.0,29.53,South,186,7.0,16.0,32,0.00,,,0.00,weatherlink.com 1.10,2013-01-11 06:52:00,